Погода в Нижних Нарыкарах

Россия / Ханты-Мансийский автономный округ - Югра     63°11′19″N   64°56′29″E
темп.,
°C
ветер,
м/с
пор.,
м/с
влажн.,
%
обл.,
%
осадки,
мм/ч
давл.,
гПа
погр.,
м
21 июня, пн
пн2123:00+8с4107589 0.0 1018472
02:00+5с410725 0.0 1020272
05:00+5ссз387582 0.0 1022260
08:00+10с355483 0.0 10221024
11:00+14с464334 0.0 10211780
14:00+16ссв343673 0.0 10202102
17:00+17св3434100 0.0 10192195
20:00+15в354488 0.0 1018318
22 июня, вт
вт2223:00+11вюв345768 0.0 101868
02:00+9ююв226281 0.0 101813
05:00+11ссв016096 0.0 101831
08:00+15с124570 0.0 1018552
11:00+18ссв443890 0.0 10182316
14:00+16ссв554490 0.0 10191735
17:00+16ссв465040 0.1 10201452
20:00+15с464818 0.1 10201677
23 июня, ср
ср2323:00+10всв23655 0.1 102133
02:00+7св22755 0.0 102314
05:00+9ссв23705 0.0 1024117
08:00+13с33481 0.0 1024937
11:00+16ссв34394 0.0 10231655
14:00+19ссв33322 0.0 10211792
17:00+20ссв34315 0.0 10201928
20:00+19в23406 0.0 1019219
24 июня, чт
чт2423:00+13ююв22525 0.0 101814
02:00+11ююз335716 0.0 101728
05:00+12юз2258100 0.0 101665
08:00+17ю11467 0.0 1014235
11:00+23ю2134100 0.0 1013928
14:00+25ююз2232100 0.0 10121365
17:00+20в4648100 0.0 1011127
20:00+15вюв4884100 1.0 1010188
25 июня, пт
пт2523:00+15всв2292100 2.4 101146
02:00+13юв259460 0.3 1010135
05:00+14ю12905 0.3 1010103
08:00+17юз1175100 0.0 1010491
11:00+21ююз225790 0.0 1010984
14:00+24ююз3250100 0.0 10091401
17:00+25ююз224697 0.0 10091550
20:00+22всв226286 0.0 100855